DW4678 Weather Reports


time (UTC)temp
F
wind
direction
speed
knots
gust
knots
rain 1hr
in
rain 24hr
in
rain mn
in
humidity
%
barometer
mb
20200531071611 63 348 9.6 0.0 0.00 0.00 0.00 70 1011.3
20200531070043 64 310 9.6 0.0 0.00 0.00 0.00 70 1011.3
20200531064603 64 337 10.4 0.0 0.00 0.00 0.00 68 1011.2
20200531063037 64 316 9.6 0.0 0.00 0.00 0.00 69 1010.9
20200531061515 64 344 9.6 0.0 0.00 0.00 0.00 71 1010.9
20200531054647 64 311 8.7 0.0 0.00 0.00 0.00 72 1010.6
20200531053105 64 335 9.6 0.0 0.00 0.00 0.00 72 1010.8
20200531051618 64 320 9.6 0.0 0.00 0.00 0.00 72 1010.8
20200531050114 65 324 10.4 0.0 0.00 0.00 0.00 73 1010.9
20200531044516 65 308 11.3 0.0 0.00 0.00 0.00 75 1011.0
20200531043010 65 302 15.6 0.0 0.00 0.00 0.00 78 1010.8
20200531041712 62 273 11.3 0.0 0.00 0.00 0.00 82 1010.8
20200531040108 62 275 9.6 0.0 0.00 0.00 0.11 82 1010.8
20200531034613 62 273 9.6 0.0 0.00 0.00 0.11 82 1010.8
20200531033113 62 262 10.4 0.0 0.00 0.00 0.11 82 1010.9
20200531031534 62 268 8.7 0.0 0.00 0.00 0.11 82 1010.8
20200531030021 63 275 7.8 0.0 0.00 0.00 0.11 82 1010.9
20200531023156 64 273 11.3 0.0 0.00 0.00 0.11 82 1011.0
20200531021608 62 275 8.7 0.0 0.00 0.00 0.11 81 1011.0
20200531020106 61 266 8.7 0.0 0.00 0.00 0.11 80 1011.0
20200531014610 62 264 9.6 0.0 0.00 0.00 0.11 80 1010.9
20200531013031 62 264 9.6 0.0 0.00 0.00 0.11 81 1010.8
20200531011514 62 263 11.3 0.0 0.00 0.00 0.11 81 1010.8
20200531003117 62 249 13.9 0.0 0.00 0.00 0.11 80 1010.8
20200531001733 62 258 13.9 0.0 0.00 0.00 0.11 79 1010.7
20200531000110 62 253 13.9 0.0 0.00 0.00 0.11 79 1010.7
20200530234624 62 245 13.9 0.0 0.00 0.00 0.11 77 1010.7
20200530233102 61 251 13.9 0.0 0.00 0.00 0.11 75 1010.6
20200530231611 61 235 15.6 0.0 0.00 0.00 0.11 76 1010.4
20200530230057 62 239 14.8 0.0 0.00 0.00 0.11 75 1010.6
20200530224520 62 242 13.0 0.0 0.00 0.00 0.11 71 1010.5
20200530223016 61 234 12.2 0.0 0.00 0.00 0.11 66 1010.4
20200530221508 61 228 11.3 0.0 0.00 0.00 0.11 64 1010.2
20200530214628 61 218 13.0 0.0 0.00 0.00 0.11 62 1010.4
20200530213144 61 228 13.0 0.0 0.00 0.00 0.11 60 1010.2
20200530211624 61 231 13.0 0.0 0.00 0.00 0.11 57 1010.4
20200530210109 60 216 13.0 0.0 0.00 0.00 0.11 56 1010.3
20200530204638 60 220 14.8 0.0 0.00 0.00 0.11 55 1010.3
20200530203034 60 218 14.8 0.0 0.00 0.00 0.11 54 1010.4
20200530200142 59 231 8.7 0.0 0.00 0.00 0.11 54 1010.2
20200530194622 59 225 9.6 0.0 0.00 0.00 0.11 55 1010.2
20200530193123 58 226 11.3 0.0 0.00 0.00 0.11 55 1010.3
20200530191608 58 225 16.5 0.0 0.00 0.00 0.11 55 1010.1
20200530190029 59 223 13.0 0.0 0.00 0.00 0.11 55 1010.1
20200530184510 59 214 13.0 0.0 0.00 0.00 0.11 56 1010.1
20200530183139 59 209 15.6 0.0 0.00 0.00 0.11 56 1010.1
20200530181628 59 211 15.6 0.0 0.00 0.00 0.11 57 1010.1
20200530180306 59 216 16.5 0.0 0.00 0.00 0.11 57 1010.2
20200530174631 59 218 17.4 0.0 0.00 0.00 0.11 57 1010.2
20200530173123 59 217 14.8 0.0 0.00 0.00 0.11 57 1010.3
20200530171641 59 211 16.5 0.0 0.00 0.00 0.11 58 1010.4
20200530170053 59 223 15.6 0.0 0.00 0.00 0.11 58 1010.5
20200530164617 59 226 15.6 0.0 0.00 0.00 0.11 58 1010.6
20200530163110 58 215 13.9 0.0 0.00 0.00 0.11 58 1010.6
20200530161518 58 238 13.0 0.0 0.00 0.00 0.11 59 1010.8
20200530160045 58 233 13.0 0.0 0.00 0.00 0.11 59 1011.0
20200530154544 58 233 13.9 0.0 0.00 0.00 0.11 59 1011.2
20200530153017 58 224 12.2 0.0 0.00 0.00 0.11 59 1011.2
20200530151527 58 215 13.0 0.0 0.00 0.00 0.11 59 1011.2
20200530144651 58 212 14.8 0.0 0.00 0.00 0.11 59 1011.5
20200530143221 58 217 13.9 0.0 0.00 0.00 0.11 59 1011.5
20200530141708 58 223 12.2 0.0 0.00 0.00 0.11 59 1011.5
20200530140130 58 229 11.3 0.0 0.00 0.00 0.11 59 1011.7
20200530134655 58 239 11.3 0.0 0.00 0.00 0.11 59 1011.4
20200530133120 58 239 11.3 0.0 0.00 0.00 0.11 59 1011.6
20200530131623 58 239 11.3 0.0 0.00 0.00 0.11 59 1011.7
20200530130106 58 237 11.3 0.0 0.00 0.00 0.11 58 1011.7
20200530124645 58 254 12.2 0.0 0.00 0.00 0.11 58 1011.7
20200530123052 58 255 12.2 0.0 0.00 0.00 0.10 58 1011.8
20200530121537 58 247 13.0 0.0 0.00 0.00 0.10 58 1011.6
20200530120018 58 243 14.8 0.0 0.00 0.00 0.10 58 1011.5
20200530114517 58 248 16.5 0.0 0.00 0.00 0.10 58 1011.5
20200530110251 58 238 16.5 0.0 0.00 0.00 0.10 58 1011.3
20200530104628 58 234 15.6 0.0 0.00 0.00 0.10 58 1011.4
20200530103113 58 227 15.6 0.0 0.00 0.00 0.10 58 1011.2
20200530101705 58 214 14.8 0.0 0.00 0.00 0.10 58 1011.3
20200530100232 58 224 13.0 0.0 0.00 0.00 0.10 58 1011.4
20200530094527 58 225 13.0 0.0 0.00 0.00 0.10 57 1011.3
20200530091527 59 231 12.2 0.0 0.00 0.00 0.10 57 1011.5
20200530090024 59 250 12.2 0.0 0.00 0.00 0.10 57 1011.8
20200530083215 59 240 9.6 0.0 0.00 0.00 0.10 57 1011.8
20200530081558 59 243 11.3 0.0 0.00 0.00 0.09 57 1011.8
20200530080035 59 244 10.4 0.0 0.00 0.00 0.09 57 1012.1
20200530074532 59 254 13.0 0.0 0.00 0.00 0.08 57 1012.3
20200530073045 60 243 15.6 0.0 0.00 0.00 0.08 57 1012.2